Location: *
(40.4000°N, 15.1200°E)
Time: 05:09:54
(UTC+00:00)

Cosmos 614 Rocket - Pass Details

Date: 09 April 2020
Orbit: 734 x 763 km, 74.1° (Epoch: 26 May)

Event Time Altitude Azimuth Distance (km) Brightness Sun altitude
Rises 18:29:36 0° 203° (SSW) 3,211 7.3 -11.2°
Reaches altitude 10° 18:31:58 10° 206° (SSW) 2,289 6.5 -11.7°
Maximum altitude 18:37:09 71° 290° (WNW) 806 4.3 -12.6°
Drops below altitude 10° 18:42:21 10° 15° (NNE) 2,295 6.6 -13.5°
Sets 18:44:45 0° 17° (NNE) 3,220 7.3 -13.9°
